Dewpoint
38 39 38 38 37 35 34 33 35 36 39 43 43 43 38 35 32 30 28 29 32 33 34 37 38 39 41 41 41 41 42 42 43 43 43 45 47 51 54 57 52 50 51
37 40 38 37 36 36 34 32 33 32 37 40 43 42 39 34 31 30 27 28 30 32 30 31 32 35 38 38 39 39 39 40 41 41 42 42 45 45 50 48 47 46 46
36 40 39 37 36 36 33 32 31 30 32 35 40 42 39 36 33 27 26 25 27 29 31 30 30 31 32 33 34 37 37 38 39 42 41 40 40 41 49 46 44 43 42
37 40 39 37 37 36 33 31 29 29 27 28 32 34 33 32 26 23 23 24 24 26 28 29 29 30 30 30 31 32 34 37 35 38 38 41 41 39 39 46 42 40 39
36 38 38 38 37 36 33 30 28 27 25 25 25 26 24 24 23 21 22 22 24 24 26 26 27 27 28 28 29 30 29 31 35 35 35 36 39 38 39 38 40 40 37
35 38 38 38 37 36 33 31 28 26 26 25 23 25 24 23 23 24 23 22 23 24 24 25 25 25 26 26 27 27 28 28 29 30 34 33 33 34 35 36 37 37 38
34 35 37 37 37 34 34 31 28 26 26 26 26 26 26 25 24 27 25 26 26 25 24 25 25 25 24 24 25 26 26 26 28 27 27 31 32 32 32 34 35 33 38
32 34 36 36 36 34 33 30 28 26 23 25 26 26 25 24 23 23 23 21 24 25 24 24 23 23 24 23 22 23 23 23 26 26 26 26 27 29 31 30 31 30 32
28 32 34 35 34 34 32 30 26 25 22 21 21 21 21 18 19 17 18 23 24 21 21 20 19 20 20 21 20 20 18 17 23 24 24 24 26 27 28 30 30 28 26
27 29 31 31 31 32 31 29 25 23 21 20 19 19 19 20 20 22 23 21 20 20 19 19 19 18 18 19 20 21 17 15 17 18 20 22 24 25 26 27 27 28 26
27 27 24 24 24 26 29 28 25 23 19 18 16 17 18 19 21 23 23 21 20 21 21 20 21 21 21 20 20 21 20 20 20 20 18 18 20 22 22 23 24 25 25
26 24 22 22 22 22 22 23 22 20 17 15 14 16 17 18 21 22 22 21 21 21 19 18 18 19 21 20 19 22 24 24 22 19 19 19 18 21 22 21 21 23 23
24 22 18 20 23 25 25 25 25 28 25 19 17 16 18 20 20 22 22 22 21 21 20 20 20 20 20 20 20 19 23 24 23 21 18 19 18 19 22 22 22 23 22
24 25 27 27 27 27 29 31 31 32 28 24 18 16 19 17 19 22 23 22 22 21 20 18 19 20 19 19 19 18 19 27 25 23 18 16 16 18 22 23 25 24 22
27 27 27 27 27 28 29 29 27 26 25 25 23 22 19 24 24 24 23 22 22 21 20 18 17 17 17 17 17 16 19 21 27 24 22 19 16 18 22 21 25 28 24
26 26 26 26 26 27 27 28 28 27 27 24 23 22 21 23 23 23 22 22 20 20 19 18 18 18 16 17 19 19 19 20 22 26 21 19 17 17 19 20 21 23 23
26 25 26 26 25 26 27 26 27 27 25 22 21 21 23 23 23 22 21 20 19 19 18 16 15 14 14 15 17 18 19 20 19 26 21 16 15 15 17 18 20 22 21
24 25 25 25 25 26 26 26 27 26 24 23 23 24 23 23 22 21 20 19 18 18 17 15 13 12 12 13 15 16 17 17 17 19 17 16 15 15 17 17 19 21 19
24 24 25 25 25 25 24 24 23 24 24 24 24 25 25 23 21 20 19 18 18 17 16 16 14 12 10 11 13 14 15 15 15 18 15 13 13 16 16 17 18 22 18
24 23 21 21 21 20 20 20 20 20 20 22 22 21 21 20 20 19 18 17 16 15 11 10 9 9 10 12 12 14 16 15 14 16 13 14 15 16 17 16 18 20 23
20 20 20 19 20 19 19 18 18 18 18 18 18 19 19 19 19 17 12 11 9 8 7 8 9 10 10 10 11 13 14 15 15 18 14 13 14 16 17 17 19 22 23
17 17 19 18 18 18 18 18 17 16 17 16 13 12 12 12 11 9 8 6 6 6 7 9 9 10 10 11 11 13 15 16 16 17 17 13 15 16 16 17 24 24 23
14 15 17 15 14 14 13 14 14 12 12 11 11 10 9 7 5 5 4 5 5 7 8 9 9 10 10 10 10 12 15 15 16 17 22 22 18 18 23 24 24 20 16
12 13 13 10 8 7 5 5 4 4 4 4 4 5 5 6 7 7 7 6 7 7 8 9 10 11 11 10 10 10 12 14 16 16 22 24 24 23 22 21 19 15 11
10 8 6 5 5 5 5 5 4 3 3 4 5 6 6 7 7 8 8 8 9 10 11 11 12 12 12 11 11 12 13 14 13 14 18 17 20 18 16 15 14 12 9
5 4 4 4 4 4 4 4 4 3 3 4 4 5 6 7 7 8 9 10 10 12 14 16 17 17 13 12 13 13 16 17 15 15 18 18 17 17 15 14 12 10 9
Wind_Speed
18 19 17 13 11 8 7 5 5 4 4 2 2 3 6 7 9 10 12 13 14 15 15 13 13 15 14 14 15 13 17 14 18 8 11 10 12 11 13 11 18 19 17
17 19 18 16 14 12 9 8 6 4 4 2 4 2 4 6 6 7 10 11 11 12 11 13 13 13 12 14 14 15 13 9 15 9 8 8 5 13 17 15 17 17 15
20 20 18 17 14 14 13 11 9 6 5 2 2 3 4 2 4 6 6 10 11 11 12 13 13 13 13 13 13 13 13 11 11 10 7 5 4 11 7 14 15 15 16
16 20 19 18 18 16 13 12 10 8 6 3 2 1 2 3 2 3 5 7 9 10 11 11 12 12 12 13 12 13 12 8 11 6 11 7 3 3 7 5 11 14 15
16 20 20 19 18 16 16 13 10 8 7 5 4 4 7 7 5 3 4 6 7 10 9 10 10 11 10 11 11 10 12 11 7 7 7 6 6 4 2 6 6 9 11
15 15 17 17 17 16 15 12 12 9 7 6 5 6 8 6 6 4 5 5 5 7 9 8 9 9 9 9 9 10 10 10 10 8 4 4 3 4 3 3 5 7 5
15 14 16 15 15 16 14 13 12 10 9 8 6 7 7 7 6 4 4 4 3 4 6 8 9 8 9 9 9 8 8 7 7 7 7 5 1 2 3 4 3 4 2
12 13 15 15 15 15 14 13 13 12 11 9 7 6 6 6 6 5 4 4 3 2 4 6 6 7 7 7 8 7 7 8 5 7 7 7 4 4 2 3 4 4 4
6 10 13 13 12 14 14 13 11 10 10 10 9 7 5 5 6 5 2 3 4 3 6 7 7 7 7 6 6 5 4 7 3 3 5 4 4 4 5 3 3 4 4
8 5 8 7 6 7 11 12 11 11 10 9 10 9 7 6 4 2 2 3 2 2 3 4 5 6 7 7 7 7 2 5 5 2 5 5 4 6 1 3 6 3 3
13 12 14 13 12 11 5 8 8 8 10 7 6 8 9 7 5 4 3 1 2 4 4 4 5 7 6 7 8 8 5 6 7 6 6 6 5 6 5 3 3 4 2
20 19 16 14 14 12 11 8 5 4 7 6 5 7 5 6 5 3 1 1 4 5 5 4 5 6 5 5 6 7 6 6 8 7 7 7 5 8 6 3 3 1 2
21 19 20 19 17 16 14 13 12 10 8 4 3 7 7 8 7 6 3 3 2 5 7 6 5 4 5 6 7 8 4 5 5 6 4 6 6 6 6 5 5 5 3
22 19 17 15 13 11 10 9 7 3 3 7 9 6 4 4 4 4 3 2 2 5 7 6 7 5 5 5 7 8 7 5 7 3 4 5 5 5 5 6 5 6 5
18 15 12 10 10 10 9 8 7 8 8 4 5 8 6 1 3 3 3 4 4 6 6 7 6 7 5 7 6 4 8 8 8 8 7 7 6 8 8 7 3 5 3
14 12 11 10 10 9 9 7 6 5 5 6 5 7 3 5 4 3 5 6 7 8 8 8 7 7 7 10 9 8 8 9 10 10 9 8 9 9 11 10 11 7 5
11 10 10 9 9 9 9 8 8 7 7 8 7 4 3 4 5 5 7 8 9 10 8 9 9 9 9 13 12 10 8 9 12 9 11 6 6 7 5 10 11 10 9
11 10 10 10 9 8 9 10 9 9 8 8 8 6 6 7 7 7 9 9 10 10 10 10 10 8 9 14 13 12 10 11 14 12 8 7 7 9 9 8 7 9 9
9 11 12 10 9 8 10 11 11 10 8 9 9 8 7 7 8 9 10 11 10 10 11 11 11 12 12 15 14 12 9 12 15 13 10 8 9 11 13 8 10 9 10
10 10 11 11 10 10 11 12 12 11 11 9 8 8 9 9 11 11 12 10 10 11 11 13 11 13 14 13 16 15 8 12 13 12 10 13 12 13 13 8 10 8 9
11 11 10 12 12 11 10 12 13 13 11 10 10 11 11 12 13 12 11 11 13 13 15 14 13 12 12 14 18 19 12 12 12 10 10 10 13 13 12 13 11 9 7
14 14 12 12 14 14 11 12 13 12 12 13 13 13 13 13 12 12 12 12 14 16 16 15 15 12 12 17 18 19 20 17 15 12 9 10 13 11 11 12 7 9 9
14 14 13 14 14 15 13 12 12 12 14 14 15 16 15 14 14 14 13 13 13 14 14 13 14 13 11 12 17 18 19 19 16 12 11 15 16 8 5 3 6 6 4
14 13 15 16 16 14 14 15 16 15 15 16 16 15 14 16 15 14 13 14 14 13 14 14 15 13 12 11 9 12 12 14 14 14 11 9 9 11 10 9 8 5 5
15 14 15 16 16 16 16 16 16 16 17 16 15 16 15 15 16 16 15 14 14 14 14 15 14 13 13 13 15 16 14 14 15 14 12 12 9 10 9 8 8 6 4
15 16 16 17 18 18 18 18 15 15 16 16 15 15 16 15 15 16 16 18 24 25 26 26 23 17 23 21 20 23 20 19 19 14 13 14 13 13 12 11 10 9 9
Wind_Direction
189 177 168 166 175 175 172 149 114 79 34 66 67 70 75 66 59 56 39 32 29 15 26 16 19 14 23 19 28 12 6 8 1 354 350 315 288 357 348 331 53 46 42
170 166 164 172 188 185 181 153 144 125 104 57 94 51 75 98 102 79 62 42 43 31 33 29 26 21 24 20 25 26 16 12 12 355 333 0 4 16 48 42 52 45 43
176 167 176 185 193 195 176 173 161 154 131 113 149 157 132 155 114 59 58 49 47 37 32 34 31 32 35 24 15 24 27 6 6 13 19 352 1 333 54 55 55 48 45
178 171 182 192 196 195 174 169 165 163 144 144 173 176 105 117 91 86 80 77 58 46 35 32 38 34 35 32 22 16 16 23 11 2 8 7 1 327 317 57 64 56 46
185 185 188 193 193 179 170 168 166 163 147 147 126 138 117 110 132 121 114 93 79 61 38 39 39 41 37 28 24 22 21 16 16 15 356 350 343 50 311 306 356 63 55
190 188 184 182 181 162 163 171 170 169 152 142 132 127 131 128 136 90 101 90 71 66 34 32 32 34 30 24 16 17 22 19 15 11 29 10 353 350 351 322 337 335 78
181 190 179 178 171 170 173 175 174 170 159 159 139 123 126 123 130 112 98 87 59 35 24 20 15 16 13 10 7 1 12 10 11 11 0 353 34 277 323 300 316 312 11
184 185 181 182 183 181 181 184 180 177 171 165 154 145 138 139 128 131 140 113 112 96 25 11 9 4 359 6 360 346 2 359 7 11 359 341 14 5 177 281 308 301 277
213 193 181 179 186 181 183 184 177 175 174 164 154 159 149 124 139 139 126 105 72 20 25 2 359 349 340 347 335 330 6 347 341 344 330 341 359 1 2 327 248 284 287
175 105 84 88 79 157 166 162 167 179 173 166 158 151 141 122 114 89 80 50 47 37 334 322 326 330 333 338 335 327 19 346 345 11 355 355 2 332 64 357 347 294 255
144 115 83 58 39 30 84 146 155 168 160 157 158 147 148 150 166 186 160 185 294 271 296 328 332 327 327 328 333 336 343 353 337 353 1 346 352 342 360 16 351 352 28
97 87 77 70 57 46 36 42 78 90 119 120 130 123 176 170 174 169 148 338 325 331 322 314 325 314 315 323 328 312 345 336 327 335 336 335 360 339 333 11 325 277 325
82 72 56 47 40 33 29 34 41 38 38 56 161 215 199 193 196 177 171 250 301 321 317 316 304 310 324 334 316 309 282 274 286 303 322 319 335 322 343 349 335 335 325
59 57 48 41 32 27 22 15 16 350 256 226 229 224 216 223 207 146 202 274 294 302 299 295 296 299 304 301 297 290 278 302 269 277 277 280 288 303 351 319 328 306 316
48 44 41 41 32 24 17 12 9 5 360 323 268 258 202 81 333 331 320 311 281 269 275 286 285 287 275 272 263 335 327 307 293 260 252 250 233 265 265 275 279 312 318
34 32 30 26 23 16 0 2 352 342 330 288 279 267 176 201 210 265 287 283 284 280 270 269 266 273 271 273 271 272 276 285 289 260 252 254 265 259 261 257 262 241 231
23 22 19 18 12 0 349 347 338 323 296 290 298 306 281 292 293 279 277 278 275 277 273 275 274 265 265 269 268 270 276 274 280 259 257 250 262 285 223 270 261 248 246
9 5 6 358 355 351 349 334 325 310 299 301 303 306 294 283 282 282 279 280 282 281 276 270 272 274 271 271 270 270 274 275 274 260 249 245 259 271 238 249 283 261 240
360 4 358 343 340 350 339 321 314 309 315 308 305 308 301 294 290 284 279 279 282 281 278 272 265 260 265 274 274 269 263 270 273 256 240 234 248 254 253 223 258 281 244
6 352 351 341 338 336 329 325 322 321 318 324 318 314 303 294 287 285 285 286 285 280 275 274 265 267 271 279 272 270 245 263 269 264 232 247 237 237 256 229 246 260 246
345 346 342 330 327 318 310 314 315 314 318 311 308 299 291 287 282 280 285 288 281 271 271 270 270 270 261 265 266 264 250 243 264 264 237 225 245 241 241 249 231 248 190
346 342 330 324 317 310 301 298 301 309 321 316 309 300 295 289 284 279 279 277 276 277 274 272 271 264 258 265 265 260 253 237 245 251 251 232 231 235 237 250 248 223 183
331 323 320 314 310 308 316 306 303 309 303 300 296 292 291 290 288 284 278 276 273 271 268 262 264 264 257 252 261 260 251 251 246 240 249 245 234 222 158 163 176 157 166
320 319 319 314 312 320 322 318 319 318 311 303 296 293 290 287 281 276 273 270 266 262 265 265 263 259 261 262 265 254 267 277 269 263 249 237 222 183 194 198 197 200 221
316 321 315 314 317 323 317 311 310 312 305 297 295 293 290 284 281 275 269 267 265 262 259 257 260 260 257 258 260 244 238 235 244 251 234 235 181 182 187 193 206 190 190
327 320 319 317 312 313 312 309 310 310 305 301 297 292 293 293 289 286 283 274 278 276 272 267 255 240 246 251 255 259 248 243 239 230 230 224 205 190 191 199 207 201 221